Location: Decatur(IL)
(39.8400°N, 88.9550°W)
Time: 19:18:08
(UTC-05:00)

Cosmos 1953 - Visible Passes

Search period start: 22 March 2017 00:00
Search period end: 01 April 2017 00:00
Orbit: 542 x 560 km, 82.5° (Epoch: 21 March)

Date Brightness Start Highest point End Pass type
(mag) Time Alt. Az. Time Alt. Az. Time Alt. Az.
22 Mar 2.2 20:55:18 50° SSE 20:56:12 69° E 21:00:16 10° NNE visible
23 Mar 2.2 20:48:07 10° S 20:52:11 78° E 20:56:15 10° N visible
24 Mar 2.2 20:44:05 10° S 20:48:09 86° E 20:52:15 10° N visible
25 Mar 2.3 20:40:04 10° S 20:44:08 85° W 20:48:13 10° N visible
26 Mar 2.5 20:36:03 10° SSW 20:40:07 76° W 20:44:12 10° N visible
27 Mar 2.7 20:32:04 10° SSW 20:36:06 68° W 20:40:09 10° N visible
28 Mar 2.9 20:28:04 10° SSW 20:32:05 61° W 20:36:07 10° N visible
29 Mar 3.2 20:24:06 10° SSW 20:28:04 54° W 20:32:04 10° N visible
30 Mar 3.4 20:20:08 10° SSW 20:24:04 48° W 20:28:00 10° N visible
31 Mar 3.7 20:16:11 10° SSW 20:20:03 43° W 20:23:57 10° N visible
